OK2ZAW-23 Weather Reports


time (UTC)temp
C
wind
direction
speed
KPH
gust
KPH
rain 1hr
cm
rain 24hr
cm
rain mn
cm
humidity
%
barometer
mb
20260502195354 13 0 0.0 0.0 0.00 0.00 0.00 33 1017.3
20260502193813 13 0 0.0 0.0 0.00 0.00 0.00 31 1017.3
20260502192746 14 0 0.0 0.0 0.00 0.00 0.00 31 1017.3
20260502192232 15 0 0.0 0.0 0.00 0.00 0.00 30 1017.2
20260502191205 16 0 0.0 0.0 0.00 0.00 0.00 28 1017.1
20260502190651 16 0 0.0 0.0 0.00 0.00 0.00 28 1017.0
20260502185623 17 0 0.0 0.0 0.00 0.00 0.00 26 1017.1
20260502183527 20 0 0.0 0.0 0.00 0.00 0.00 22 1016.9
20260502183013 20 0 0.0 0.0 0.00 0.00 0.00 22 1016.8
20260502182459 21 0 0.0 0.0 0.00 0.00 0.00 21 1016.8
20260502181431 23 0 0.0 0.0 0.00 0.00 0.00 20 1016.7
20260502163952 37 0 0.0 0.0 0.00 0.00 0.00 14 1016.9
20260502163436 37 0 0.0 0.0 0.00 0.00 0.00 14 1016.9
20260502162919 37 0 0.0 0.0 0.00 0.00 0.00 15 1016.9
20260502162404 36 0 0.0 0.0 0.00 0.00 0.00 15 1017.0
20260502161331 36 0 0.0 0.0 0.00 0.00 0.00 14 1017.2
20260502151019 35 0 0.0 0.0 0.00 0.00 0.00 17 1018.0
20260502150503 35 0 0.0 0.0 0.00 0.00 0.00 17 1018.0
20260502130411 23 0 0.0 0.0 0.00 0.00 0.00 25 1019.6
20260502122729 22 0 0.0 0.0 0.00 0.00 0.00 25 1020.0
20260502122215 22 0 0.0 0.0 0.00 0.00 0.00 28 1020.2
20260502121700 22 0 0.0 0.0 0.00 0.00 0.00 27 1020.2
20260502120117 21 0 0.0 0.0 0.00 0.00 0.00 29 1020.3
20260502115603 21 0 0.0 0.0 0.00 0.00 0.00 28 1020.4
20260502115049 21 0 0.0 0.0 0.00 0.00 0.00 29 1020.4
20260502114535 20 0 0.0 0.0 0.00 0.00 0.00 27 1020.5
20260502113506 21 0 0.0 0.0 0.00 0.00 0.00 29 1020.8
20260502112952 21 0 0.0 0.0 0.00 0.00 0.00 31 1020.7
20260502111409 20 0 0.0 0.0 0.00 0.00 0.00 29 1020.9
20260502105827 21 0 0.0 0.0 0.00 0.00 0.00 34 1021.0
20260502105312 21 0 0.0 0.0 0.00 0.00 0.00 35 1021.2
20260502102702 20 0 0.0 0.0 0.00 0.00 0.00 37 1021.4
20260502102147 20 0 0.0 0.0 0.00 0.00 0.00 38 1021.5
20260502101119 20 0 0.0 0.0 0.00 0.00 0.00 37 1021.6
20260502091345 17 0 0.0 0.0 0.00 0.00 0.00 39 1022.2
20260502071328 14 0 0.0 0.0 0.00 0.00 0.00 66 1022.7
20260502070814 13 0 0.0 0.0 0.00 0.00 0.00 67 1022.7
20260502065235 12 0 0.0 0.0 0.00 0.00 0.00 67 1022.9
20260502063653 11 0 0.0 0.0 0.00 0.00 0.00 77 1022.9
20260502063140 11 0 0.0 0.0 0.00 0.00 0.00 77 1022.9
20260502061600 9 0 0.0 0.0 0.00 0.00 0.00 81 1022.9
20260502061047 9 0 0.0 0.0 0.00 0.00 0.00 81 1023.0
20260502060021 8 0 0.0 0.0 0.00 0.00 0.00 83 1023.0
20260502055508 7 0 0.0 0.0 0.00 0.00 0.00 83 1023.0
20260502054955 7 0 0.0 0.0 0.00 0.00 0.00 84 1022.9
20260502054441 7 0 0.0 0.0 0.00 0.00 0.00 84 1023.0
20260502053415 6 0 0.0 0.0 0.00 0.00 0.00 85 1022.9
20260502051836 5 0 0.0 0.0 0.00 0.00 0.00 87 1023.0
20260502051324 5 0 0.0 0.0 0.00 0.00 0.00 87 1023.0
20260502050811 5 0 0.0 0.0 0.00 0.00 0.00 87 1022.9
20260502045745 5 0 0.0 0.0 0.00 0.00 0.00 89 1022.9
20260502045232 4 0 0.0 0.0 0.00 0.00 0.00 89 1022.9
20260502044206 3 0 0.0 0.0 0.00 0.00 0.00 89 1022.9
20260502043653 3 0 0.0 0.0 0.00 0.00 0.00 89 1022.8
20260502043141 3 0 0.0 0.0 0.00 0.00 0.00 89 1022.9
20260502041603 3 0 0.0 0.0 0.00 0.00 0.00 91 1022.8
20260502040537 3 0 0.0 0.0 0.00 0.00 0.00 89 1022.8
20260502035511 3 0 0.0 0.0 0.00 0.00 0.00 88 1022.8
20260502034445 2 0 0.0 0.0 0.00 0.00 0.00 89 1022.7
20260502033933 3 0 0.0 0.0 0.00 0.00 0.00 89 1022.7
20260502033420 3 0 0.0 0.0 0.00 0.00 0.00 89 1022.7
20260502032907 3 0 0.0 0.0 0.00 0.00 0.00 89 1022.7
20260502032355 3 0 0.0 0.0 0.00 0.00 0.00 89 1022.7
20260502031842 3 0 0.0 0.0 0.00 0.00 0.00 89 1022.7
20260502031329 3 0 0.0 0.0 0.00 0.00 0.00 89 1022.7
20260502023659 3 0 0.0 0.0 0.00 0.00 0.00 89 1022.9
20260502022634 3 0 0.0 0.0 0.00 0.00 0.00 89 1022.9
20260502015517 4 0 0.0 0.0 0.00 0.00 0.00 85 1023.0
20260502014451 5 0 0.0 0.0 0.00 0.00 0.00 85 1023.1
20260502011847 5 0 0.0 0.0 0.00 0.00 0.00 88 1023.2
20260502011334 5 0 0.0 0.0 0.00 0.00 0.00 86 1023.1
20260502010821 5 0 0.0 0.0 0.00 0.00 0.00 87 1023.2
20260502005755 5 0 0.0 0.0 0.00 0.00 0.00 88 1023.2
20260502005243 5 0 0.0 0.0 0.00 0.00 0.00 89 1023.2
20260502004729 5 0 0.0 0.0 0.00 0.00 0.00 91 1023.3
20260502004216 5 0 0.0 0.0 0.00 0.00 0.00 89 1023.3
20260502003703 5 0 0.0 0.0 0.00 0.00 0.00 90 1023.3
20260502003150 5 0 0.0 0.0 0.00 0.00 0.00 91 1023.3
20260502002638 5 0 0.0 0.0 0.00 0.00 0.00 90 1023.3
20260502002125 5 0 0.0 0.0 0.00 0.00 0.00 85 1023.3
20260502001059 5 0 0.0 0.0 0.00 0.00 0.00 86 1023.3
20260502000546 5 0 0.0 0.0 0.00 0.00 0.00 82 1023.3
20260502000033 5 0 0.0 0.0 0.00 0.00 0.00 83 1023.3
20260501234454 5 0 0.0 0.0 0.00 0.00 0.00 80 1023.3
20260501233429 5 0 0.0 0.0 0.00 0.00 0.00 80 1023.3
20260501232915 6 0 0.0 0.0 0.00 0.00 0.00 77 1023.4
20260501231336 6 0 0.0 0.0 0.00 0.00 0.00 78 1023.5
20260501230824 6 0 0.0 0.0 0.00 0.00 0.00 77 1023.6
20260501225757 6 0 0.0 0.0 0.00 0.00 0.00 73 1023.6
20260501225244 6 0 0.0 0.0 0.00 0.00 0.00 71 1023.6
20260501224731 6 0 0.0 0.0 0.00 0.00 0.00 70 1023.6
20260501223705 6 0 0.0 0.0 0.00 0.00 0.00 70 1023.6
20260501223152 6 0 0.0 0.0 0.00 0.00 0.00 69 1023.6
20260501221101 7 0 0.0 0.0 0.00 0.00 0.00 66 1023.7
20260501220547 7 0 0.0 0.0 0.00 0.00 0.00 66 1023.7
20260501220034 7 0 0.0 0.0 0.00 0.00 0.00 65 1023.7
20260501215521 7 0 0.0 0.0 0.00 0.00 0.00 67 1023.7
20260501215008 7 0 0.0 0.0 0.00 0.00 0.00 67 1023.8
20260501214455 7 0 0.0 0.0 0.00 0.00 0.00 68 1023.8
20260501213942 7 0 0.0 0.0 0.00 0.00 0.00 62 1023.8
20260501213429 8 0 0.0 0.0 0.00 0.00 0.00 62 1023.7
20260501212403 8 0 0.0 0.0 0.00 0.00 0.00 61 1023.7
20260501211850 8 0 0.0 0.0 0.00 0.00 0.00 59 1023.6
20260501211336 8 0 0.0 0.0 0.00 0.00 0.00 59 1023.7
20260501210823 8 0 0.0 0.0 0.00 0.00 0.00 59 1023.7
20260501205757 9 0 0.0 0.0 0.00 0.00 0.00 59 1023.7
20260501203703 10 0 0.0 0.0 0.00 0.00 0.00 58 1023.6
20260501203150 10 0 0.0 0.0 0.00 0.00 0.00 57 1023.6
20260501202637 10 0 0.0 0.0 0.00 0.00 0.00 60 1023.5
20260501201057 11 0 0.0 0.0 0.00 0.00 0.00 56 1023.5
20260501200544 11 0 0.0 0.0 0.00 0.00 0.00 54 1023.4